Weather History for KBIE - December, 1999

Change the Weather History Date:

Friday, December 3, 1999

  Actual Average Record
Temperature  
Mean Temperature 42 °F -  
Max Temperature 46 °F 44 °F 66 °F (1998)
Min Temperature 39 °F 21 °F 8 °F (1952)
Degree Days  
Heating Degree Days 22    
Moisture  
Dew Point 39 °F    
Average Humidity 86    
Maximum Humidity 93    
Minimum Humidity 76    
Precipitation  
Precipitation 0.00 in - - ()
Sea Level Pressure  
Sea Level Pressure 29.74 in    
Wind  
Wind Speed 11 mph (North)    
Max Wind Speed 21 mph    
Max Gust Speed 26 mph    
Visibility 5 miles    
Events      
Averages and records for this station are not official NWS values.
T = Trace of Precipitation, MM = Missing Value Source: NWS Daily Summary

Daily Weather History Graph

Daily Weather History Graph

Search for Another Location

Airport or City:

Trip Planner

Search our weather history database for the weather conditions in past years. The results will help you decide how hot, cold, wet, or windy it might be!

Date:

Astronomy

Dec. 03, 1999 Rise Set
Actual Time 7:32 AM CST 5:01 PM CST
Civil Twilight 7:01 AM CST 5:31 PM CST
Nautical Twilight 6:28 AM CST 6:05 PM CST
Astronomical Twilight 5:55 AM CST 6:38 PM CST
Moon 3:16 AM CST (12/3) 3:05 PM CST (12/3)
Length of Visible Light 10h 29m
Length of Day
9h 28m
Waning Crescent, 15% of the Moon is Illuminated
Dec 3
Waning Crescent
Dec 7
New
Dec 15
First Quarter
Dec 22
Full
Dec 29
Last Quarter

Hourly Weather History & Observations

Time (CST) Temp. Windchill Dew Point Humidity Pressure Visibility Wind Dir Wind Speed Gust Speed Precip Events Conditions
12:10 AM 44.6 °F 40.7 °F 37.4 °F 76% 29.64 in 10.0 mi NNE 6.9 mph - N/A   Mostly Cloudy
12:32 AM 44.6 °F 39.7 °F 39.2 °F 81% 29.63 in 10.0 mi NNE 9.2 mph - N/A   Overcast
12:49 AM 44.6 °F 40.2 °F 39.2 °F 81% 29.62 in 7.0 mi NNE 8.1 mph - N/A   Overcast
1:11 AM 44.6 °F 38.8 °F 39.2 °F 81% 29.59 in 7.0 mi North 11.5 mph - N/A   Overcast
1:32 AM 44.6 °F 38.4 °F 39.2 °F 81% 29.58 in 7.0 mi North 12.7 mph 20.7 mph N/A   Overcast
1:49 AM 44.6 °F 38.1 °F 39.2 °F 81% 29.57 in 10.0 mi NNE 13.8 mph - N/A   Overcast
2:12 AM 44.6 °F 38.4 °F 39.2 °F 81% 29.57 in 10.0 mi NNE 12.7 mph - N/A   Overcast
2:29 AM 44.6 °F 37.8 °F 39.2 °F 81% 29.55 in 10.0 mi North 15.0 mph - N/A   Overcast
2:51 AM 44.6 °F 37.2 °F 39.2 °F 81% 29.54 in 10.0 mi North 17.3 mph - N/A   Overcast
3:31 AM 44.6 °F 37.4 °F 39.2 °F 81% 29.53 in 10.0 mi NNE 16.1 mph 20.7 mph N/A   Overcast
4:13 AM 44.6 °F 38.8 °F 39.2 °F 81% 29.54 in 7.0 mi NNE 11.5 mph - N/A   Overcast
4:30 AM 44.6 °F 40.2 °F 39.2 °F 81% 29.54 in 7.0 mi NE 8.1 mph - N/A   Overcast
4:54 AM 44.6 °F 39.2 °F 39.2 °F 81% 29.53 in 5.0 mi NE 10.4 mph - N/A   Overcast
5:09 AM 44.6 °F 41.4 °F 39.2 °F 81% 29.54 in 5.0 mi ENE 5.8 mph - N/A   Overcast
5:31 AM 44.6 °F 41.4 °F 41.0 °F 87% 29.54 in 4.0 mi NNE 5.8 mph - N/A   Overcast
5:49 AM 44.6 °F 40.7 °F 41.0 °F 87% 29.55 in 4.0 mi NNE 6.9 mph - N/A   Overcast
6:31 AM 46.4 °F 43.5 °F 42.8 °F 87% 29.56 in 3.5 mi WNW 5.8 mph - N/A   Overcast
7:09 AM 44.6 °F 41.4 °F 42.8 °F 93% 29.56 in 3.5 mi NNE 5.8 mph - N/A   Overcast
7:31 AM 44.6 °F 40.7 °F 41.0 °F 87% 29.57 in 3.0 mi NNE 6.9 mph - N/A   Overcast
7:49 AM 44.6 °F 40.2 °F 42.8 °F 93% 29.58 in 1.8 mi North 8.1 mph - N/A   Overcast
8:29 AM 44.6 °F 40.7 °F 42.8 °F 93% 29.59 in 2.0 mi North 6.9 mph - N/A   Overcast
9:11 AM 46.4 °F 42.9 °F 42.8 °F 87% 29.60 in 2.0 mi North 6.9 mph - N/A   Overcast
9:32 AM 46.4 °F 42.4 °F 42.8 °F 87% 29.61 in 2.0 mi North 8.1 mph - N/A   Overcast
10:09 AM 44.6 °F 39.7 °F 42.8 °F 93% 29.62 in 1.8 mi NNE 9.2 mph - N/A   Overcast
10:31 AM 44.6 °F 39.2 °F 42.8 °F 93% 29.64 in 1.5 mi North 10.4 mph - N/A   Overcast
10:49 AM 44.6 °F 39.7 °F 41.0 °F 87% 29.65 in 1.2 mi NNW 9.2 mph - N/A   Overcast
11:11 AM 44.6 °F 39.2 °F 41.0 °F 87% 29.66 in 0.8 mi NNW 10.4 mph - N/A   Overcast
11:29 AM 44.6 °F 39.2 °F 41.0 °F 87% 29.65 in 0.5 mi North 10.4 mph - N/A   Overcast
11:51 AM 44.6 °F 39.7 °F 42.8 °F 93% 29.66 in 1.0 mi North 9.2 mph - N/A   Overcast
12:09 PM 44.6 °F 40.2 °F 41.0 °F 87% 29.67 in 1.0 mi North 8.1 mph - N/A   Overcast
12:30 PM 44.6 °F 40.7 °F 41.0 °F 87% 29.68 in 1.5 mi North 6.9 mph - N/A   Overcast
12:49 PM 44.6 °F 39.7 °F 41.0 °F 87% 29.68 in 2.0 mi North 9.2 mph - N/A   Overcast
1:54 PM 44.6 °F 40.2 °F 41.0 °F 87% 29.73 in 1.0 mi WNW 8.1 mph - N/A   Overcast
2:10 PM 44.6 °F 39.2 °F 39.2 °F 81% 29.74 in 0.8 mi NW 10.4 mph - N/A   Overcast
2:31 PM 44.6 °F 38.8 °F 41.0 °F 87% 29.74 in 1.8 mi NNW 11.5 mph - N/A   Overcast
2:56 PM 42.8 °F 36.6 °F 39.2 °F 87% 29.76 in 2.5 mi NW 11.5 mph - N/A   Overcast
3:14 PM 42.8 °F 35.4 °F 39.2 °F 87% 29.77 in 2.5 mi NNW 15.0 mph - N/A   Overcast
3:50 PM 42.8 °F 35.4 °F 39.2 °F 87% 29.79 in 1.5 mi NNW 15.0 mph - N/A   Overcast
4:10 PM 41.0 °F 33.1 °F 37.4 °F 87% 29.81 in 2.0 mi NNW 15.0 mph - N/A   Overcast
4:31 PM 41.0 °F 33.1 °F 37.4 °F 87% 29.83 in 4.0 mi NNW 15.0 mph - N/A   Overcast
5:13 PM 41.0 °F 31.6 °F 35.6 °F 81% 29.83 in 4.0 mi North 20.7 mph 25.3 mph N/A   Overcast
5:29 PM 41.0 °F 32.5 °F 37.4 °F 87% 29.84 in 5.0 mi North 17.3 mph 25.3 mph N/A   Overcast
5:51 PM 39.2 °F 30.2 °F 35.6 °F 87% 29.85 in 7.0 mi North 17.3 mph 26.5 mph N/A   Overcast
6:10 PM 39.2 °F 30.2 °F 37.4 °F 93% 29.87 in 7.0 mi North 17.3 mph 24.2 mph N/A   Overcast
6:29 PM 39.2 °F 31.6 °F 37.4 °F 93% 29.88 in 7.0 mi North 12.7 mph 21.9 mph N/A   Overcast
6:51 PM 39.2 °F 31.2 °F 37.4 °F 93% 29.90 in 10.0 mi North 13.8 mph - N/A   Overcast
7:11 PM 39.2 °F 30.8 °F 35.6 °F 87% 29.91 in 7.0 mi North 15.0 mph 20.7 mph N/A   Overcast
7:29 PM 39.2 °F 30.8 °F 35.6 °F 87% 29.92 in 10.0 mi North 15.0 mph 24.2 mph N/A   Overcast
7:51 PM 39.2 °F 31.2 °F 35.6 °F 87% 29.93 in 7.0 mi North 13.8 mph 20.7 mph N/A   Overcast
8:09 PM 39.2 °F 32.0 °F 35.6 °F 87% 29.95 in 7.0 mi North 11.5 mph 19.6 mph N/A   Overcast
8:30 PM 39.2 °F 32.5 °F 35.6 °F 87% 29.97 in 5.0 mi North 10.4 mph - N/A   Overcast
8:49 PM 39.2 °F 31.6 °F 35.6 °F 87% 29.98 in 5.0 mi North 12.7 mph - N/A   Overcast
9:31 PM 39.2 °F 31.6 °F 33.8 °F 81% 30.00 in 3.5 mi North 12.7 mph 19.6 mph N/A   Overcast
9:49 PM 39.2 °F 32.0 °F 33.8 °F 81% 30.01 in 4.0 mi North 11.5 mph 17.3 mph N/A   Overcast
10:11 PM 39.2 °F 33.0 °F 33.8 °F 81% 30.02 in 3.0 mi North 9.2 mph - N/A   Overcast
10:29 PM 39.2 °F 32.5 °F 35.6 °F 87% 30.02 in 3.0 mi North 10.4 mph - N/A   Overcast
10:51 PM 39.2 °F 31.6 °F 35.6 °F 87% 30.02 in 3.0 mi NNW 12.7 mph - N/A   Overcast
11:10 PM 39.2 °F 32.0 °F 35.6 °F 87% 30.02 in 3.0 mi NNW 11.5 mph - N/A   Overcast
11:29 PM 39.2 °F 31.2 °F 35.6 °F 87% 30.02 in 3.5 mi NNW 13.8 mph - N/A   Overcast
11:51 PM 39.2 °F 31.2 °F 35.6 °F 87% 30.02 in 4.0 mi NNW 13.8 mph - N/A   Overcast